| time (UTC) | temp C | wind direction | speed KPH | gust KPH | rain 1hr cm | rain 24hr cm | rain mn cm | humidity % | barometer mb |
| 20260504033041 | 11 | 203 | 8.0 | 12.9 | 0.00 | 0.00 | 0.00 | 34 | 1013.2 |
| 20260504031544 | 12 | 203 | 6.4 | 16.1 | 0.00 | 0.00 | 0.00 | 34 | 1013.1 |
| 20260504030040 | 12 | 203 | 4.8 | 11.3 | 0.00 | 0.00 | 0.00 | 33 | 1013.0 |
| 20260504024551 | 12 | 203 | 6.4 | 11.3 | 0.00 | 0.00 | 0.00 | 31 | 1013.1 |
| 20260504023038 | 12 | 203 | 4.8 | 12.9 | 0.00 | 0.00 | 0.00 | 32 | 1013.1 |
| 20260504021537 | 12 | 203 | 4.8 | 12.9 | 0.00 | 0.00 | 0.00 | 31 | 1013.1 |
| 20260504020042 | 12 | 203 | 4.8 | 9.7 | 0.00 | 0.00 | 0.00 | 31 | 1013.1 |
| 20260504014536 | 12 | 203 | 4.8 | 9.7 | 0.00 | 0.00 | 0.00 | 30 | 1013.0 |
| 20260504013006 | 12 | 203 | 4.8 | 8.0 | 0.00 | 0.00 | 0.00 | 28 | 1012.9 |
| 20260504011502 | 13 | 203 | 4.8 | 8.0 | 0.00 | 0.00 | 0.00 | 27 | 1012.7 |
| 20260504010031 | 13 | 203 | 6.4 | 11.3 | 0.00 | 0.00 | 0.00 | 26 | 1012.5 |
| 20260504004531 | 13 | 203 | 3.2 | 8.0 | 0.00 | 0.00 | 0.00 | 27 | 1012.3 |
| 20260504003038 | 13 | 203 | 3.2 | 6.4 | 0.00 | 0.00 | 0.00 | 27 | 1012.1 |
| 20260504001530 | 14 | 203 | 1.6 | 9.7 | 0.00 | 0.00 | 0.00 | 28 | 1011.9 |
| 20260504000051 | 14 | 203 | 3.2 | 8.0 | 0.00 | 0.00 | 0.00 | 26 | 1011.7 |
| 20260503234528 | 15 | 203 | 3.2 | 12.9 | 0.00 | 0.00 | 0.00 | 25 | 1011.6 |
| 20260503233025 | 15 | 203 | 4.8 | 12.9 | 0.00 | 0.00 | 0.00 | 25 | 1011.4 |
| 20260503231525 | 15 | 203 | 6.4 | 16.1 | 0.00 | 0.00 | 0.00 | 22 | 1011.3 |
| 20260503230024 | 15 | 203 | 8.0 | 20.9 | 0.00 | 0.00 | 0.00 | 23 | 1011.3 |
| 20260503224524 | 15 | 203 | 3.2 | 20.9 | 0.00 | 0.00 | 0.00 | 22 | 1011.0 |
| 20260503223025 | 15 | 203 | 4.8 | 20.9 | 0.00 | 0.00 | 0.00 | 25 | 1011.0 |
| 20260503221557 | 15 | 203 | 3.2 | 19.3 | 0.00 | 0.00 | 0.00 | 22 | 1011.0 |
| 20260503220052 | 15 | 203 | 8.0 | 19.3 | 0.00 | 0.00 | 0.00 | 23 | 1011.0 |
| 20260503214550 | 15 | 203 | 6.4 | 19.3 | 0.00 | 0.00 | 0.00 | 23 | 1011.0 |
| 20260503213049 | 15 | 203 | 1.6 | 16.1 | 0.00 | 0.00 | 0.00 | 21 | 1010.9 |
| 20260503211556 | 15 | 203 | 6.4 | 20.9 | 0.00 | 0.00 | 0.00 | 25 | 1010.8 |
| 20260503210048 | 15 | 203 | 6.4 | 20.9 | 0.00 | 0.00 | 0.00 | 24 | 1010.7 |
| 20260503204543 | 15 | 322 | 1.6 | 14.5 | 0.00 | 0.00 | 0.00 | 24 | 1010.7 |
| 20260503203100 | 15 | 203 | 1.6 | 16.1 | 0.00 | 0.00 | 0.00 | 23 | 1010.6 |
| 20260503201540 | 15 | 203 | 8.0 | 27.4 | 0.00 | 0.00 | 0.00 | 24 | 1010.7 |
| 20260503200037 | 15 | 203 | 3.2 | 22.5 | 0.00 | 0.00 | 0.00 | 26 | 1010.8 |
| 20260503194537 | 14 | 203 | 4.8 | 20.9 | 0.00 | 0.00 | 0.00 | 27 | 1011.0 |
| 20260503193032 | 14 | 203 | 4.8 | 17.7 | 0.00 | 0.00 | 0.00 | 27 | 1011.2 |
| 20260503191527 | 13 | 333 | 4.8 | 27.4 | 0.00 | 0.00 | 0.00 | 27 | 1011.3 |
| 20260503190033 | 13 | 203 | 3.2 | 19.3 | 0.00 | 0.00 | 0.00 | 30 | 1011.5 |
| 20260503184523 | 13 | 203 | 6.4 | 24.1 | 0.00 | 0.00 | 0.00 | 29 | 1011.7 |
| 20260503183025 | 12 | 203 | 3.2 | 16.1 | 0.00 | 0.00 | 0.00 | 30 | 1011.8 |
| 20260503181520 | 13 | 203 | 8.0 | 27.4 | 0.00 | 0.00 | 0.00 | 31 | 1011.8 |
| 20260503180025 | 12 | 203 | 3.2 | 24.1 | 0.00 | 0.00 | 0.00 | 31 | 1011.8 |
| 20260503174548 | 12 | 203 | 4.8 | 14.5 | 0.00 | 0.00 | 0.00 | 33 | 1011.9 |
| 20260503173055 | 12 | 203 | 6.4 | 20.9 | 0.00 | 0.00 | 0.00 | 31 | 1011.8 |
| 20260503171515 | 12 | 203 | 4.8 | 14.5 | 0.00 | 0.00 | 0.00 | 32 | 1012.0 |
| 20260503081502 | 10 | 33 | 4.8 | 20.9 | 0.00 | 0.00 | 0.00 | 37 | 1010.1 |
| 20260503071601 | 10 | 29 | 1.6 | 11.3 | 0.00 | 0.00 | 0.00 | 38 | 1010.1 |
| 20260503060103 | 11 | 21 | 3.2 | 14.5 | 0.00 | 0.00 | 0.00 | 36 | 1010.3 |
| 20260503054546 | 11 | 203 | 3.2 | 17.7 | 0.00 | 0.00 | 0.00 | 35 | 1010.5 |
| 20260503053013 | 11 | 203 | 0.0 | 11.3 | 0.00 | 0.00 | 0.00 | 35 | 1010.3 |
| 20260503051510 | 12 | 203 | 1.6 | 12.9 | 0.00 | 0.00 | 0.00 | 34 | 1010.2 |
| 20260503050007 | 12 | 28 | 3.2 | 16.1 | 0.00 | 0.00 | 0.00 | 35 | 1010.7 |
| 20260503044513 | 12 | 20 | 0.0 | 12.9 | 0.00 | 0.00 | 0.00 | 35 | 1010.7 |
| 20260503043006 | 12 | 21 | 1.6 | 11.3 | 0.00 | 0.00 | 0.00 | 34 | 1010.9 |
| 20260503041506 | 12 | 203 | 0.0 | 12.9 | 0.00 | 0.00 | 0.00 | 34 | 1010.8 |
| 20260503040003 | 12 | 203 | 3.2 | 11.3 | 0.00 | 0.00 | 0.00 | 34 | 1010.9 |
| 20260503034503 | 12 | 358 | 0.0 | 11.3 | 0.00 | 0.00 | 0.00 | 32 | 1010.8 |